Simultaneous Nadir Overpasses (SNOs) Predictions

Prediction of SNOs between NOAA-15 and METOP-C Satellite Orbit:

Table of predicted SNOs for the next 14.0 days since TLE Epoch: 5/13/2023
Index Date (NOAA-15) Time (NOAA-15) Lat,Lon (NOAA-15) SZA (NOAA-15 ) Date (METOP-C) Time (METOP-C) Lat,Lon (METOP-C) SZA (METOP-C ) Distance(km) Time Diff (sec)
1 05/16/2023 09:30:00 81.08, 76.07 64.11 05/16/2023 09:28:54 81.08, 75.89 64.06 3.12 66
2 05/16/2023 10:20:34 -81.09,-116.95 115.93 05/16/2023 10:19:34 -81.08,-116.79 115.95 3.08 60
3 05/16/2023 11:11:01 81.08, 50.83 64.09 05/16/2023 11:10:15 81.09, 50.75 64.07 1.97 46
4 05/16/2023 12:01:34 -81.08,-141.81 115.92 05/16/2023 12:00:55 -81.09,-141.93 115.94 2.41 39
5 05/16/2023 12:52:03 81.09, 25.22 64.05 05/16/2023 12:51:37 81.08, 25.24 64.03 1.14 26
6 05/16/2023 13:42:36 -81.09,-167.42 115.96 05/16/2023 13:42:17 -81.08,-167.44 115.98 1.23 19
7 05/16/2023 14:33:04 81.09, -0.02 64.04 05/16/2023 14:32:58 81.09, 0.10 64.04 2.00 6
8 05/16/2023 15:23:37 -81.09, 167.35 115.98 05/16/2023 15:23:38 -81.09, 167.42 115.97 1.21 1
9 05/16/2023 16:14:05 81.09, -25.26 64.02 05/16/2023 16:14:20 81.08, -25.42 64.00 2.86 15
10 05/16/2023 17:04:38 -81.09, 142.11 115.99 05/16/2023 17:04:59 -81.10, 142.28 115.96 2.92 21
11 05/16/2023 17:55:06 81.09, -50.50 64.01 05/16/2023 17:55:41 81.09, -50.56 64.01 1.04 35
12 05/16/2023 18:45:39 -81.09, 116.88 116.01 05/16/2023 18:46:21 -81.09, 116.76 116.00 1.95 42
13 05/16/2023 19:36:07 81.09, -75.74 63.99 05/16/2023 19:37:02 81.10, -75.70 64.02 1.20 55
14 05/16/2023 20:26:40 -81.09, 91.64 116.02 05/16/2023 20:27:42 -81.10, 91.62 115.99 1.08 62



Historial Predications of SNOs between NOAA-15 and METOP-C
